Flag for Australia Weather past 2 weeks in Tamworth, New South Wales, Australia

Now
66 °F

Scattered clouds.


Feels Like: 66 °F
Forecast: 60 / 81 °F
Wind: 10 mph from Southeast

Location: Tamworth Airport

Current Time: Feb 2, 2015 at 7:14:35 AM

Latest Report: Feb 2, 2015 at 7:00 AM


Visibility: N/A

Pressure: 29.86 "Hg

Humidity: 68%

Dew point: 55 °F

Location of TamworthLocation

Historic Weather in Tamworth — Graph

°F

Tamworth temperature yesterday

Maximum temperature yesterday: 88 °F (at 4:30 PM)
Minimum temperature yesterday: 54 °F (at 5:00 AM)
Average temperature yesterday: 72 °F

Past Weeks' High & Low Weather Summary

 TemperatureHumidityPressure
High97 °F (Jan 25, 3:00 PM)88% (Jan 18, 7:00 AM)29.92 "Hg (Jan 18, 7:00 AM)
Low52 °F (Jan 31, 3:00 AM)11% (Jan 18, 5:00 PM)29.62 "Hg (Jan 24, 6:00 PM)
Average74 °F53%29.80 "Hg
* Reported Jan 18 6:00 AM — Feb 2 6:00 AM, Tamworth, Weather by CustomWeather, © 2014

Note: Actual official high and low records may vary slightly from our data, if they occured in-between our weather recording intervals... More about our weather records

Advertising

Tamworth weather history for previous 24 hours

 ConditionsComfort  
Time TempWeatherWind HumidityBarometerVisibility
6:00 AM
Feb 2
64 °FPassing clouds.12 mph73%29.83 "HgN/A
5:00 AM64 °FPassing clouds.10 mph73%29.80 "HgN/A
4:00 AM64 °FPassing clouds.10 mph73%29.80 "HgN/A
3:00 AM66 °FPassing clouds.12 mph68%29.80 "HgN/A
2:00 AM70 °FClear.15 mph64%29.80 "HgN/A
1:00 AM70 °FClear.17 mph64%29.80 "HgN/A
12:30 AM70 °FClear.12 mph64%29.80 "HgN/A
12:00 AM70 °FClear.12 mph64%29.80 "HgN/A
11:30 PM
Feb 1
70 °FClear.10 mph64%29.80 "HgN/A
11:00 PM70 °FClear.14 mph64%29.80 "HgN/A
10:30 PM72 °FClear.13 mph61%29.80 "HgN/A
10:00 PM72 °FClear.15 mph61%29.77 "HgN/A
9:00 PM72 °FClear.12 mph47%29.77 "HgN/A
8:30 PM75 °FClear.No wind39%29.74 "HgN/A
8:00 PM77 °FClear.1 mph34%29.74 "HgN/A
7:30 PM82 °FSunny.3 mph25%29.74 "HgN/A
7:00 PM84 °FSunny.1 mph22%29.74 "HgN/A
6:30 PM84 °FSunny.7 mph23%29.71 "HgN/A
6:00 PM84 °FSunny.8 mph25%29.71 "HgN/A
5:30 PM88 °FSunny.5 mph19%29.71 "HgN/A
5:00 PM86 °FSunny.7 mph22%29.71 "HgN/A
4:30 PM88 °FScattered clouds.6 mph21%29.71 "HgN/A
4:00 PM86 °FSunny.8 mph19%29.74 "HgN/A
3:30 PM86 °FSunny.2 mph19%29.74 "HgN/A
3:00 PM86 °FSunny.6 mph20%29.74 "HgN/A
2:00 PM84 °FSunny.6 mph23%29.74 "HgN/A
1:30 PM82 °FSunny.7 mph26%29.77 "HgN/A
1:00 PM84 °FSunny.5 mph23%29.77 "HgN/A
12:30 PM82 °FSunny.3 mph26%29.77 "HgN/A
12:00 PM82 °FSunny.5 mph25%29.80 "HgN/A
11:30 AM81 °FSunny.2 mph30%29.80 "HgN/A
11:00 AM79 °FSunny.3 mph32%29.80 "HgN/A
10:30 AM77 °FSunny.2 mph42%29.80 "HgN/A
10:00 AM73 °FSunny.2 mph44%29.80 "HgN/A
9:30 AM72 °FSunny.3 mph47%29.80 "HgN/A
9:00 AM70 °FSunny.1 mph50%29.80 "HgN/A
8:00 AM64 °FSunny.6 mph64%29.80 "HgN/A
7:30 AM61 °FSunny.7 mph72%29.80 "HgN/A
7:00 AM57 °FSunny.8 mph82%29.77 "HgN/A
Weather by CustomWeather, © 2014

See weather overviewHow to use our weather pages